This is the latest recevied weather packets stored in our database for station/object HG8GL-6. If no packets are shown the sender has not sent any weather packets the latest 10 day(s).
| Time | Temp. | Humidity | Pressure | Rain* | Wind** | Luminosity | Snow |
|---|---|---|---|---|---|---|---|
| 1788257156 | 27.78° C | 40% | 1020 hPa | 0 mm | - | - | - |
| 1788256526 | 27.22° C | 43% | 1020 hPa | 0 mm | - | - | - |
| 1788255925 | 26.67° C | 45% | 1021 hPa | 0 mm | - | - | - |
| 1788255296 | 26.11° C | 47% | 1020 hPa | 0 mm | - | - | - |
| 1788254666 | 25.56° C | 48% | 1020 hPa | 0 mm | - | - | - |
| 1788254065 | 25° C | 49% | 1020 hPa | 0 mm | - | - | - |
| 1788253465 | 24.44° C | 49% | 1020 hPa | 0 mm | - | - | - |
| 1788252865 | 25° C | 49% | 1020 hPa | 0 mm | - | - | - |
| 1788252236 | 25° C | 49% | 1020 hPa | 0 mm | - | - | - |
| 1788251636 | 25° C | 50% | 1021 hPa | 0 mm | - | - | - |
| 1788251035 | 25° C | 53% | 1021 hPa | 0 mm | - | - | - |
| 1788250406 | 24.44° C | 52% | 1020 hPa | 0 mm | - | - | - |
| 1788249776 | 25° C | 50% | 1020 hPa | 0 mm | - | - | - |
| 1788249175 | 25° C | 50% | 1020 hPa | 0 mm | - | - | - |
| 1788248545 | 25° C | 57% | 1020 hPa | 0 mm | - | - | - |
| 1788247915 | 23.89° C | 60% | 1020 hPa | 0 mm | - | - | - |
| 1788247315 | 23.33° C | 61% | 1020 hPa | 0 mm | - | - | - |
| 1788246685 | 23.33° C | 66% | 1020 hPa | 0 mm | - | - | - |
| 1788246085 | 22.78° C | 69% | 1020 hPa | 0 mm | - | - | - |
| 1788245485 | 22.22° C | 73% | 1020 hPa | 0 mm | - | - | - |
| 1788244885 | 21.67° C | 76% | 1020 hPa | 0 mm | - | - | - |
| 1788244255 | 21.67° C | 77% | 1019 hPa | 0 mm | - | - | - |
| 1788243625 | 21.67° C | 78% | 1019 hPa | 0 mm | - | - | - |
| 1788243025 | 21.11° C | 81% | 1019 hPa | 0 mm | - | - | - |
| 1788242395 | 20.56° C | 82% | 1018 hPa | 0 mm | - | - | - |
* Rain latest hour (hover to see other rain measurements)
** Current wind speed in m/s (hover to see current wind gust speed)